| time (UTC) | temp F | wind direction | speed MPH | gust MPH | rain 1hr in | rain 24hr in | rain mn in | humidity % | barometer mb |
| 20260509105152 | 56 | 97 | 7.0 | 12.0 | 0.00 | 0.00 | 0.00 | 43 | 1025.4 |
| 20260509104652 | 56 | 251 | 3.0 | 11.0 | 0.00 | 0.00 | 0.00 | 46 | 1025.4 |
| 20260509104152 | 55 | 172 | 7.0 | 11.0 | 0.00 | 0.00 | 0.00 | 45 | 1025.5 |
| 20260509103652 | 55 | 179 | 5.0 | 13.0 | 0.00 | 0.00 | 0.00 | 46 | 1025.6 |
| 20260509103645 | 55 | 157 | 8.0 | 13.0 | 0.00 | 0.00 | 0.00 | 46 | 1025.6 |
| 20260509102651 | 55 | 162 | 8.0 | 13.0 | 0.00 | 0.00 | 0.00 | 45 | 1025.5 |
| 20260509102151 | 55 | 166 | 6.0 | 11.0 | 0.00 | 0.00 | 0.00 | 47 | 1025.6 |
| 20260509101651 | 56 | 204 | 4.0 | 11.0 | 0.00 | 0.00 | 0.00 | 47 | 1025.6 |
| 20260509101150 | 55 | 183 | 2.0 | 12.0 | 0.00 | 0.00 | 0.00 | 53 | 1025.6 |
| 20260509100649 | 54 | 107 | 8.0 | 14.0 | 0.00 | 0.00 | 0.00 | 52 | 1025.6 |
| 20260509100149 | 54 | 116 | 5.0 | 14.0 | 0.00 | 0.00 | 0.00 | 52 | 1025.5 |
| 20260509095650 | 54 | 79 | 7.0 | 13.0 | 0.00 | 0.00 | 0.00 | 52 | 1025.6 |
| 20260509095413 | 53 | 117 | 6.0 | 13.0 | 0.00 | 0.00 | 0.00 | 52 | 1025.6 |
| 20260509094649 | 54 | 102 | 7.0 | 13.0 | 0.00 | 0.00 | 0.00 | 52 | 1025.6 |
| 20260509094149 | 53 | 83 | 6.0 | 12.0 | 0.00 | 0.00 | 0.00 | 51 | 1025.6 |
| 20260509093649 | 53 | 56 | 7.0 | 12.0 | 0.00 | 0.00 | 0.00 | 51 | 1025.6 |
| 20260509093149 | 54 | 131 | 5.0 | 11.0 | 0.00 | 0.00 | 0.00 | 52 | 1025.7 |
| 20260509092649 | 54 | 142 | 7.0 | 11.0 | 0.00 | 0.00 | 0.00 | 50 | 1025.7 |
| 20260509092149 | 54 | 158 | 6.0 | 11.0 | 0.00 | 0.00 | 0.00 | 52 | 1025.6 |
| 20260509091649 | 54 | 173 | 6.0 | 13.0 | 0.00 | 0.00 | 0.00 | 52 | 1025.7 |
| 20260509091150 | 54 | 86 | 3.0 | 13.0 | 0.00 | 0.00 | 0.00 | 51 | 1025.8 |
| 20260509090648 | 53 | 135 | 8.0 | 13.0 | 0.00 | 0.00 | 0.00 | 53 | 1025.8 |
| 20260509090147 | 53 | 142 | 6.0 | 13.0 | 0.00 | 0.00 | 0.00 | 52 | 1025.8 |
| 20260509085647 | 53 | 85 | 9.0 | 15.0 | 0.00 | 0.00 | 0.00 | 49 | 1025.8 |
| 20260509085147 | 53 | 173 | 9.0 | 15.0 | 0.00 | 0.00 | 0.00 | 50 | 1025.8 |
| 20260509084647 | 53 | 97 | 8.0 | 14.0 | 0.00 | 0.00 | 0.00 | 50 | 1025.9 |
| 20260509084147 | 53 | 114 | 9.0 | 14.0 | 0.00 | 0.00 | 0.00 | 50 | 1025.8 |
| 20260509083909 | 53 | 137 | 9.0 | 11.0 | 0.00 | 0.00 | 0.00 | 47 | 1025.9 |
| 20260509083147 | 54 | 135 | 6.0 | 13.0 | 0.00 | 0.00 | 0.00 | 47 | 1025.9 |
| 20260509082647 | 54 | 103 | 8.0 | 13.0 | 0.00 | 0.00 | 0.00 | 46 | 1025.9 |
| 20260509082146 | 54 | 94 | 7.0 | 11.0 | 0.00 | 0.00 | 0.00 | 45 | 1025.9 |
| 20260509081646 | 54 | 117 | 8.0 | 11.0 | 0.00 | 0.00 | 0.00 | 47 | 1026.1 |
| 20260509081146 | 54 | 212 | 5.0 | 11.0 | 0.00 | 0.00 | 0.00 | 46 | 1026.2 |
| 20260509080646 | 53 | 159 | 9.0 | 13.0 | 0.00 | 0.00 | 0.00 | 46 | 1026.1 |
| 20260509080145 | 53 | 130 | 7.0 | 14.0 | 0.00 | 0.00 | 0.00 | 46 | 1026.0 |
| 20260509075646 | 54 | 172 | 8.0 | 14.0 | 0.00 | 0.00 | 0.00 | 45 | 1026.2 |
| 20260509075145 | 54 | 79 | 8.0 | 11.0 | 0.00 | 0.00 | 0.00 | 45 | 1026.2 |
| 20260509074645 | 54 | 138 | 7.0 | 16.0 | 0.00 | 0.00 | 0.00 | 46 | 1026.2 |
| 20260509074146 | 53 | 133 | 9.0 | 16.0 | 0.00 | 0.00 | 0.00 | 46 | 1026.3 |
| 20260509073645 | 54 | 118 | 6.0 | 15.0 | 0.00 | 0.00 | 0.00 | 46 | 1026.2 |
| 20260509073145 | 54 | 131 | 9.0 | 15.0 | 0.00 | 0.00 | 0.00 | 48 | 1026.2 |
| 20260509072645 | 53 | 189 | 6.0 | 12.0 | 0.00 | 0.00 | 0.00 | 46 | 1026.2 |
| 20260509072146 | 53 | 135 | 10.0 | 13.0 | 0.00 | 0.00 | 0.00 | 47 | 1026.2 |
| 20260509071644 | 54 | 109 | 5.0 | 13.0 | 0.00 | 0.00 | 0.00 | 47 | 1026.2 |
| 20260509071145 | 54 | 171 | 4.0 | 9.0 | 0.00 | 0.00 | 0.00 | 49 | 1026.2 |
| 20260509070645 | 53 | 142 | 4.0 | 9.0 | 0.00 | 0.00 | 0.00 | 49 | 1026.3 |
| 20260509070144 | 53 | 137 | 2.0 | 11.0 | 0.00 | 0.00 | 0.00 | 54 | 1026.3 |
| 20260509065644 | 53 | 109 | 5.0 | 11.0 | 0.00 | 0.00 | 0.00 | 54 | 1026.3 |
| 20260509065145 | 52 | 116 | 4.0 | 9.0 | 0.00 | 0.00 | 0.00 | 55 | 1026.3 |
| 20260509064645 | 52 | 161 | 3.0 | 9.0 | 0.00 | 0.00 | 0.00 | 56 | 1026.3 |
| 20260509064145 | 51 | 99 | 4.0 | 6.0 | 0.00 | 0.00 | 0.00 | 57 | 1026.3 |
| 20260509063644 | 51 | 117 | 4.0 | 6.0 | 0.00 | 0.00 | 0.00 | 58 | 1026.3 |
| 20260509063144 | 51 | 97 | 1.0 | 5.0 | 0.00 | 0.00 | 0.00 | 59 | 1026.3 |
| 20260509062644 | 51 | 165 | 4.0 | 9.0 | 0.00 | 0.00 | 0.00 | 58 | 1026.3 |
| 20260509062410 | 51 | 151 | 5.0 | 9.0 | 0.00 | 0.00 | 0.00 | 59 | 1026.3 |
| 20260509061907 | 51 | 124 | 6.0 | 9.0 | 0.00 | 0.00 | 0.00 | 58 | 1026.3 |
| 20260509061144 | 50 | 82 | 4.0 | 7.0 | 0.00 | 0.00 | 0.00 | 59 | 1026.3 |
| 20260509060643 | 49 | 96 | 5.0 | 7.0 | 0.00 | 0.00 | 0.00 | 60 | 1026.3 |
| 20260509060144 | 49 | 117 | 4.0 | 7.0 | 0.00 | 0.00 | 0.00 | 60 | 1026.3 |
| 20260509055643 | 49 | 120 | 5.0 | 7.0 | 0.00 | 0.00 | 0.00 | 60 | 1026.3 |
| 20260509055143 | 49 | 120 | 3.0 | 9.0 | 0.00 | 0.00 | 0.00 | 60 | 1026.3 |
| 20260509054643 | 49 | 133 | 2.0 | 9.0 | 0.00 | 0.00 | 0.00 | 61 | 1026.3 |
| 20260509054143 | 48 | 138 | 4.0 | 11.0 | 0.00 | 0.00 | 0.00 | 62 | 1026.4 |
| 20260509053643 | 48 | 157 | 2.0 | 11.0 | 0.00 | 0.00 | 0.00 | 62 | 1026.4 |
| 20260509053407 | 48 | 114 | 5.0 | 10.0 | 0.00 | 0.00 | 0.00 | 61 | 1026.4 |
| 20260509052643 | 48 | 111 | 3.0 | 10.0 | 0.00 | 0.00 | 0.00 | 62 | 1026.4 |
| 20260509052143 | 48 | 130 | 4.0 | 10.0 | 0.00 | 0.00 | 0.00 | 62 | 1026.4 |
| 20260509051642 | 47 | 154 | 5.0 | 7.0 | 0.00 | 0.00 | 0.00 | 63 | 1026.4 |
| 20260509051407 | 47 | 110 | 3.0 | 6.0 | 0.00 | 0.00 | 0.00 | 63 | 1026.4 |
| 20260509050643 | 46 | 80 | 4.0 | 6.0 | 0.00 | 0.00 | 0.00 | 64 | 1026.6 |
| 20260509050143 | 46 | 87 | 4.0 | 6.0 | 0.00 | 0.00 | 0.00 | 64 | 1026.5 |
| 20260509045642 | 45 | 104 | 4.0 | 6.0 | 0.00 | 0.00 | 0.00 | 64 | 1026.5 |
| 20260509045141 | 45 | 89 | 3.0 | 5.0 | 0.00 | 0.00 | 0.00 | 65 | 1026.6 |
| 20260509044642 | 44 | 66 | 3.0 | 5.0 | 0.00 | 0.00 | 0.00 | 66 | 1026.5 |
| 20260509044631 | 44 | 103 | 4.0 | 5.0 | 0.00 | 0.00 | 0.00 | 66 | 1026.5 |
| 20260509043642 | 44 | 87 | 3.0 | 6.0 | 0.00 | 0.00 | 0.00 | 66 | 1026.5 |
| 20260509043142 | 43 | 93 | 4.0 | 6.0 | 0.00 | 0.00 | 0.00 | 67 | 1026.5 |
| 20260509042908 | 43 | 80 | 4.0 | 5.0 | 0.00 | 0.00 | 0.00 | 67 | 1026.5 |
| 20260509042141 | 42 | 89 | 4.0 | 5.0 | 0.00 | 0.00 | 0.00 | 68 | 1026.5 |
| 20260509041641 | 42 | 79 | 4.0 | 5.0 | 0.00 | 0.00 | 0.00 | 68 | 1026.5 |
| 20260509041141 | 42 | 83 | 2.0 | 4.0 | 0.00 | 0.00 | 0.00 | 67 | 1026.4 |
| 20260509040642 | 42 | 94 | 3.0 | 4.0 | 0.00 | 0.00 | 0.00 | 68 | 1026.5 |
| 20260509040141 | 41 | 94 | 2.0 | 3.0 | 0.00 | 0.00 | 0.00 | 68 | 1026.4 |
| 20260509035641 | 41 | 102 | 3.0 | 3.0 | 0.00 | 0.00 | 0.00 | 68 | 1026.5 |
| 20260509035141 | 41 | 102 | 2.0 | 3.0 | 0.00 | 0.00 | 0.00 | 68 | 1026.5 |
| 20260509034641 | 41 | 110 | 2.0 | 4.0 | 0.00 | 0.00 | 0.00 | 68 | 1026.6 |
| 20260509034141 | 40 | 111 | 3.0 | 4.0 | 0.00 | 0.00 | 0.00 | 70 | 1026.6 |
| 20260509033640 | 40 | 114 | 3.0 | 3.0 | 0.00 | 0.00 | 0.00 | 71 | 1026.6 |
| 20260509033625 | 39 | 114 | 2.0 | 3.0 | 0.00 | 0.00 | 0.00 | 72 | 1026.6 |
| 20260509032640 | 38 | 114 | 2.0 | 3.0 | 0.00 | 0.00 | 0.00 | 72 | 1026.6 |
| 20260509032406 | 38 | 121 | 2.0 | 3.0 | 0.00 | 0.00 | 0.00 | 71 | 1026.7 |
| 20260509031640 | 38 | 123 | 2.0 | 2.0 | 0.00 | 0.00 | 0.00 | 71 | 1026.7 |
| 20260509031141 | 38 | 123 | 2.0 | 2.0 | 0.00 | 0.00 | 0.00 | 71 | 1026.7 |
| 20260509030640 | 38 | 123 | 2.0 | 2.0 | 0.00 | 0.00 | 0.00 | 70 | 1026.7 |
| 20260509030140 | 38 | 123 | 2.0 | 2.0 | 0.00 | 0.00 | 0.00 | 70 | 1026.6 |
| 20260509025857 | 38 | 123 | 1.0 | 2.0 | 0.00 | 0.00 | 0.00 | 69 | 1026.6 |
| 20260509025139 | 38 | 123 | 1.0 | 2.0 | 0.00 | 0.00 | 0.00 | 68 | 1026.7 |
| 20260509024639 | 38 | 123 | 2.0 | 3.0 | 0.00 | 0.00 | 0.00 | 69 | 1026.7 |
| 20260509024140 | 38 | 123 | 2.0 | 3.0 | 0.00 | 0.00 | 0.00 | 69 | 1026.6 |
| 20260509023639 | 38 | 123 | 2.0 | 3.0 | 0.00 | 0.00 | 0.00 | 70 | 1026.6 |
| 20260509023139 | 38 | 123 | 2.0 | 3.0 | 0.00 | 0.00 | 0.00 | 70 | 1026.7 |
| 20260509022639 | 37 | 123 | 2.0 | 2.0 | 0.00 | 0.00 | 0.00 | 70 | 1026.6 |
| 20260509022356 | 37 | 123 | 1.0 | 2.0 | 0.00 | 0.00 | 0.00 | 70 | 1026.7 |
| 20260509021639 | 37 | 123 | 1.0 | 2.0 | 0.00 | 0.00 | 0.00 | 69 | 1026.7 |
| 20260509021138 | 37 | 123 | 2.0 | 2.0 | 0.00 | 0.00 | 0.00 | 70 | 1026.7 |
| 20260509020639 | 37 | 123 | 2.0 | 2.0 | 0.00 | 0.00 | 0.00 | 71 | 1026.7 |
| 20260509020359 | 36 | 123 | 2.0 | 2.0 | 0.00 | 0.00 | 0.00 | 71 | 1026.7 |
| 20260509015638 | 36 | 123 | 1.0 | 2.0 | 0.00 | 0.00 | 0.00 | 71 | 1026.8 |
| 20260509015138 | 36 | 123 | 0.0 | 0.0 | 0.00 | 0.00 | 0.00 | 70 | 1026.8 |
| 20260509014638 | 36 | 123 | 0.0 | 0.0 | 0.00 | 0.00 | 0.00 | 70 | 1026.8 |
| 20260509014138 | 36 | 123 | 0.0 | 0.0 | 0.00 | 0.00 | 0.00 | 69 | 1026.7 |
| 20260509013638 | 36 | 123 | 0.0 | 0.0 | 0.00 | 0.00 | 0.00 | 70 | 1026.7 |
| 20260509013138 | 37 | 123 | 0.0 | 0.0 | 0.00 | 0.00 | 0.00 | 70 | 1026.7 |
| 20260509012638 | 37 | 123 | 0.0 | 0.0 | 0.00 | 0.00 | 0.00 | 69 | 1026.8 |
| 20260509012406 | 37 | 123 | 0.0 | 0.0 | 0.00 | 0.00 | 0.00 | 69 | 1026.7 |
| 20260509011637 | 37 | 123 | 0.0 | 0.0 | 0.00 | 0.00 | 0.00 | 71 | 1026.7 |
| 20260509011138 | 37 | 123 | 0.0 | 0.0 | 0.00 | 0.00 | 0.00 | 71 | 1026.7 |
| 20260509010638 | 37 | 123 | 0.0 | 0.0 | 0.00 | 0.00 | 0.00 | 70 | 1026.7 |
| 20260509010137 | 37 | 123 | 0.0 | 0.0 | 0.00 | 0.00 | 0.00 | 70 | 1026.7 |
| 20260509005637 | 37 | 123 | 0.0 | 0.0 | 0.00 | 0.00 | 0.00 | 70 | 1026.7 |
| 20260509005137 | 38 | 123 | 0.0 | 0.0 | 0.00 | 0.00 | 0.00 | 69 | 1026.7 |
| 20260509004637 | 38 | 123 | 0.0 | 1.0 | 0.00 | 0.00 | 0.00 | 69 | 1026.8 |
| 20260509004136 | 38 | 123 | 0.0 | 1.0 | 0.00 | 0.00 | 0.00 | 70 | 1026.8 |
| 20260509003637 | 38 | 123 | 1.0 | 1.0 | 0.00 | 0.00 | 0.00 | 70 | 1026.8 |
| 20260509003136 | 38 | 123 | 0.0 | 1.0 | 0.00 | 0.00 | 0.00 | 69 | 1026.7 |
| 20260509002636 | 38 | 123 | 0.0 | 0.0 | 0.00 | 0.00 | 0.00 | 68 | 1026.7 |
| 20260509002136 | 38 | 123 | 0.0 | 1.0 | 0.00 | 0.00 | 0.00 | 67 | 1026.6 |
| 20260509001636 | 38 | 123 | 0.0 | 2.0 | 0.00 | 0.00 | 0.00 | 67 | 1026.6 |
| 20260509001136 | 38 | 123 | 1.0 | 2.0 | 0.00 | 0.00 | 0.00 | 66 | 1026.7 |
| 20260509000636 | 38 | 123 | 1.0 | 2.0 | 0.00 | 0.00 | 0.00 | 68 | 1026.6 |
| 20260509000136 | 37 | 123 | 1.0 | 2.0 | 0.00 | 0.00 | 0.00 | 69 | 1026.6 |
| 20260508235636 | 38 | 123 | 0.0 | 0.0 | 0.00 | 0.00 | 0.00 | 68 | 1026.6 |
| 20260508235135 | 38 | 123 | 0.0 | 0.0 | 0.00 | 0.00 | 0.00 | 68 | 1026.6 |
| 20260508234852 | 38 | 123 | 0.0 | 0.0 | 0.00 | 0.00 | 0.00 | 68 | 1026.6 |
| 20260508234135 | 38 | 123 | 0.0 | 0.0 | 0.00 | 0.00 | 0.00 | 68 | 1026.6 |
| 20260508233859 | 38 | 123 | 0.0 | 0.0 | 0.00 | 0.00 | 0.00 | 69 | 1026.6 |
| 20260508233135 | 38 | 123 | 0.0 | 0.0 | 0.00 | 0.00 | 0.00 | 69 | 1026.7 |
| 20260508232635 | 38 | 123 | 0.0 | 0.0 | 0.00 | 0.00 | 0.00 | 69 | 1026.8 |
| 20260508232135 | 38 | 123 | 0.0 | 0.0 | 0.00 | 0.00 | 0.00 | 69 | 1026.8 |
| 20260508231635 | 38 | 123 | 0.0 | 0.0 | 0.00 | 0.00 | 0.00 | 70 | 1026.7 |
| 20260508231135 | 38 | 123 | 0.0 | 0.0 | 0.00 | 0.00 | 0.00 | 70 | 1026.8 |
| 20260508230635 | 38 | 123 | 0.0 | 0.0 | 0.00 | 0.00 | 0.00 | 70 | 1026.8 |
| 20260508230135 | 38 | 123 | 0.0 | 0.0 | 0.00 | 0.00 | 0.00 | 69 | 1026.7 |
| 20260508225859 | 38 | 123 | 0.0 | 0.0 | 0.00 | 0.00 | 0.00 | 69 | 1026.7 |
| 20260508225135 | 38 | 123 | 0.0 | 0.0 | 0.00 | 0.00 | 0.00 | 68 | 1026.7 |
| 20260508224635 | 38 | 123 | 0.0 | 0.0 | 0.00 | 0.00 | 0.00 | 67 | 1026.7 |
| 20260508224135 | 38 | 123 | 0.0 | 0.0 | 0.00 | 0.00 | 0.00 | 67 | 1026.7 |
| 20260508223635 | 38 | 123 | 0.0 | 1.0 | 0.00 | 0.00 | 0.00 | 66 | 1026.7 |
| 20260508223136 | 38 | 123 | 0.0 | 1.0 | 0.00 | 0.00 | 0.00 | 66 | 1026.8 |
| 20260508222858 | 38 | 123 | 1.0 | 1.0 | 0.00 | 0.00 | 0.00 | 66 | 1026.8 |
| 20260508222136 | 38 | 123 | 1.0 | 1.0 | 0.00 | 0.00 | 0.00 | 65 | 1026.7 |
| 20260508221635 | 38 | 123 | 0.0 | 1.0 | 0.00 | 0.00 | 0.00 | 63 | 1026.7 |
| 20260508221557 | 38 | 123 | 0.0 | 2.0 | 0.00 | 0.00 | 0.00 | 63 | 1026.8 |
| 20260508220135 | 39 | 123 | 1.0 | 2.0 | 0.00 | 0.00 | 0.00 | 63 | 1026.7 |
| 20260508215635 | 39 | 123 | 1.0 | 1.0 | 0.00 | 0.00 | 0.00 | 63 | 1026.8 |
| 20260508215135 | 39 | 123 | 0.0 | 1.0 | 0.00 | 0.00 | 0.00 | 64 | 1026.8 |
| 20260508214903 | 39 | 123 | 0.0 | 0.0 | 0.00 | 0.00 | 0.00 | 63 | 1026.8 |
| 20260508214134 | 38 | 123 | 0.0 | 0.0 | 0.00 | 0.00 | 0.00 | 65 | 1026.8 |
| 20260508213635 | 39 | 123 | 0.0 | 0.0 | 0.00 | 0.00 | 0.00 | 63 | 1026.9 |
| 20260508213134 | 39 | 123 | 0.0 | 0.0 | 0.00 | 0.00 | 0.00 | 62 | 1026.9 |
| 20260508212859 | 39 | 123 | 0.0 | 0.0 | 0.00 | 0.00 | 0.00 | 62 | 1027.0 |
| 20260508212136 | 39 | 123 | 0.0 | 0.0 | 0.00 | 0.00 | 0.00 | 61 | 1027.0 |
| 20260508211634 | 39 | 123 | 0.0 | 0.0 | 0.00 | 0.00 | 0.00 | 61 | 1026.9 |
| 20260508211134 | 39 | 123 | 0.0 | 0.0 | 0.00 | 0.00 | 0.00 | 60 | 1026.9 |
| 20260508210634 | 40 | 123 | 0.0 | 0.0 | 0.00 | 0.00 | 0.00 | 60 | 1026.9 |
| 20260508210133 | 40 | 123 | 0.0 | 0.0 | 0.00 | 0.00 | 0.00 | 60 | 1026.9 |
| 20260508205633 | 40 | 123 | 0.0 | 0.0 | 0.00 | 0.00 | 0.00 | 59 | 1026.9 |
| 20260508205133 | 40 | 123 | 0.0 | 1.0 | 0.00 | 0.00 | 0.00 | 59 | 1026.9 |
| 20260508204631 | 40 | 123 | 0.0 | 2.0 | 0.00 | 0.00 | 0.00 | 59 | 1026.9 |
| 20260508204350 | 40 | 123 | 1.0 | 2.0 | 0.00 | 0.00 | 0.00 | 59 | 1026.9 |
| 20260508203855 | 41 | 123 | 1.0 | 2.0 | 0.00 | 0.00 | 0.00 | 58 | 1026.7 |
| 20260508203131 | 41 | 123 | 1.0 | 1.0 | 0.00 | 0.00 | 0.00 | 59 | 1026.8 |
| 20260508202633 | 41 | 123 | 1.0 | 1.0 | 0.00 | 0.00 | 0.00 | 59 | 1026.9 |
| 20260508202132 | 41 | 123 | 1.0 | 1.0 | 0.00 | 0.00 | 0.00 | 57 | 1026.8 |
| 20260508201633 | 42 | 123 | 0.0 | 1.0 | 0.00 | 0.00 | 0.00 | 58 | 1026.9 |
| 20260508201132 | 42 | 123 | 1.0 | 1.0 | 0.00 | 0.00 | 0.00 | 57 | 1026.9 |
| 20260508200633 | 42 | 123 | 1.0 | 1.0 | 0.00 | 0.00 | 0.00 | 56 | 1026.8 |
| 20260508200131 | 42 | 123 | 1.0 | 1.0 | 0.00 | 0.00 | 0.00 | 57 | 1026.8 |
| 20260508195631 | 43 | 123 | 1.0 | 1.0 | 0.00 | 0.00 | 0.00 | 55 | 1026.8 |
| 20260508195354 | 43 | 123 | 1.0 | 1.0 | 0.00 | 0.00 | 0.00 | 55 | 1026.8 |
| 20260508194631 | 43 | 123 | 1.0 | 1.0 | 0.00 | 0.00 | 0.00 | 54 | 1026.7 |
| 20260508194129 | 43 | 123 | 1.0 | 1.0 | 0.00 | 0.00 | 0.00 | 55 | 1026.8 |
| 20260508193633 | 44 | 123 | 1.0 | 1.0 | 0.00 | 0.00 | 0.00 | 54 | 1026.8 |
| 20260508193133 | 44 | 123 | 1.0 | 2.0 | 0.00 | 0.00 | 0.00 | 53 | 1026.8 |
| 20260508192633 | 44 | 123 | 1.0 | 2.0 | 0.00 | 0.00 | 0.00 | 52 | 1026.8 |
| 20260508192133 | 45 | 123 | 1.0 | 2.0 | 0.00 | 0.00 | 0.00 | 52 | 1026.7 |
| 20260508191634 | 45 | 123 | 1.0 | 2.0 | 0.00 | 0.00 | 0.00 | 51 | 1026.7 |
| 20260508191133 | 45 | 123 | 1.0 | 1.0 | 0.00 | 0.00 | 0.00 | 50 | 1026.8 |
| 20260508190633 | 46 | 123 | 1.0 | 1.0 | 0.00 | 0.00 | 0.00 | 49 | 1026.7 |
| 20260508190132 | 46 | 123 | 0.0 | 0.0 | 0.00 | 0.00 | 0.00 | 48 | 1026.7 |
| 20260508185858 | 47 | 123 | 0.0 | 0.0 | 0.00 | 0.00 | 0.00 | 48 | 1026.7 |
| 20260508185132 | 47 | 123 | 0.0 | 0.0 | 0.00 | 0.00 | 0.00 | 47 | 1026.6 |
| 20260508184631 | 48 | 123 | 0.0 | 1.0 | 0.00 | 0.00 | 0.00 | 46 | 1026.6 |
| 20260508184131 | 49 | 123 | 0.0 | 1.0 | 0.00 | 0.00 | 0.00 | 44 | 1026.6 |
| 20260508183631 | 49 | 123 | 1.0 | 2.0 | 0.00 | 0.00 | 0.00 | 44 | 1026.7 |
| 20260508183131 | 49 | 123 | 2.0 | 2.0 | 0.00 | 0.00 | 0.00 | 42 | 1026.7 |
| 20260508182630 | 49 | 123 | 2.0 | 2.0 | 0.00 | 0.00 | 0.00 | 42 | 1026.5 |
| 20260508182131 | 50 | 123 | 1.0 | 2.0 | 0.00 | 0.00 | 0.00 | 41 | 1026.6 |
| 20260508181630 | 50 | 123 | 1.0 | 3.0 | 0.00 | 0.00 | 0.00 | 40 | 1026.6 |
| 20260508181130 | 51 | 123 | 2.0 | 3.0 | 0.00 | 0.00 | 0.00 | 39 | 1026.6 |
| 20260508180630 | 51 | 123 | 2.0 | 3.0 | 0.00 | 0.00 | 0.00 | 38 | 1026.6 |
| 20260508180351 | 51 | 123 | 2.0 | 3.0 | 0.00 | 0.00 | 0.00 | 38 | 1026.6 |
| 20260508175858 | 51 | 123 | 1.0 | 3.0 | 0.00 | 0.00 | 0.00 | 37 | 1026.6 |
| 20260508175132 | 51 | 123 | 2.0 | 5.0 | 0.00 | 0.00 | 0.00 | 37 | 1026.6 |
| 20260508174631 | 52 | 125 | 3.0 | 5.0 | 0.00 | 0.00 | 0.00 | 36 | 1026.6 |
| 20260508174129 | 52 | 118 | 2.0 | 4.0 | 0.00 | 0.00 | 0.00 | 36 | 1026.6 |
| 20260508173630 | 52 | 121 | 2.0 | 5.0 | 0.00 | 0.00 | 0.00 | 36 | 1026.4 |
| 20260508173129 | 52 | 151 | 3.0 | 6.0 | 0.00 | 0.00 | 0.00 | 35 | 1026.5 |
| 20260508172629 | 52 | 148 | 4.0 | 6.0 | 0.00 | 0.00 | 0.00 | 34 | 1026.5 |
| 20260508172129 | 52 | 155 | 4.0 | 5.0 | 0.00 | 0.00 | 0.00 | 34 | 1026.4 |
| 20260508171628 | 52 | 162 | 3.0 | 7.0 | 0.00 | 0.00 | 0.00 | 35 | 1026.5 |
| 20260508171359 | 52 | 87 | 3.0 | 7.0 | 0.00 | 0.00 | 0.00 | 35 | 1026.5 |
| 20260508170629 | 52 | 111 | 6.0 | 7.0 | 0.00 | 0.00 | 0.00 | 35 | 1026.5 |
| 20260508170128 | 53 | 144 | 5.0 | 6.0 | 0.00 | 0.00 | 0.00 | 36 | 1026.5 |
| 20260508170115 | 53 | 118 | 4.0 | 6.0 | 0.00 | 0.00 | 0.00 | 37 | 1026.5 |
| 20260508165129 | 53 | 120 | 4.0 | 6.0 | 0.00 | 0.00 | 0.00 | 36 | 1026.5 |
| 20260508164848 | 53 | 117 | 4.0 | 6.0 | 0.00 | 0.00 | 0.00 | 35 | 1026.5 |
| 20260508164130 | 53 | 151 | 4.0 | 7.0 | 0.00 | 0.00 | 0.00 | 34 | 1026.4 |
| 20260508163629 | 53 | 107 | 4.0 | 7.0 | 0.00 | 0.00 | 0.00 | 33 | 1026.4 |
| 20260508163547 | 54 | 199 | 1.0 | 7.0 | 0.00 | 0.00 | 0.00 | 32 | 1026.5 |
| 20260508162130 | 54 | 190 | 2.0 | 7.0 | 0.00 | 0.00 | 0.00 | 31 | 1026.5 |
| 20260508161628 | 53 | 183 | 4.0 | 9.0 | 0.00 | 0.00 | 0.00 | 30 | 1026.6 |
| 20260508161352 | 53 | 124 | 5.0 | 10.0 | 0.00 | 0.00 | 0.00 | 29 | 1026.6 |
| 20260508160627 | 53 | 161 | 6.0 | 10.0 | 0.00 | 0.00 | 0.00 | 31 | 1026.6 |
| 20260508160127 | 54 | 86 | 2.0 | 9.0 | 0.00 | 0.00 | 0.00 | 29 | 1026.6 |
| 20260508155629 | 54 | 159 | 2.0 | 9.0 | 0.00 | 0.00 | 0.00 | 30 | 1026.6 |
| 20260508155130 | 54 | 124 | 6.0 | 9.0 | 0.00 | 0.00 | 0.00 | 30 | 1026.7 |
| 20260508154628 | 54 | 171 | 4.0 | 7.0 | 0.00 | 0.00 | 0.00 | 29 | 1026.7 |
| 20260508154129 | 54 | 172 | 3.0 | 7.0 | 0.00 | 0.00 | 0.00 | 29 | 1026.7 |
| 20260508153630 | 54 | 189 | 5.0 | 9.0 | 0.00 | 0.00 | 0.00 | 29 | 1026.6 |
| 20260508153128 | 55 | 158 | 5.0 | 12.0 | 0.00 | 0.00 | 0.00 | 29 | 1026.7 |
| 20260508152628 | 55 | 185 | 7.0 | 12.0 | 0.00 | 0.00 | 0.00 | 29 | 1026.8 |
| 20260508152128 | 55 | 155 | 3.0 | 11.0 | 0.00 | 0.00 | 0.00 | 30 | 1026.7 |
| 20260508151627 | 55 | 157 | 3.0 | 11.0 | 0.00 | 0.00 | 0.00 | 29 | 1026.6 |
| 20260508151128 | 55 | 114 | 6.0 | 9.0 | 0.00 | 0.00 | 0.00 | 29 | 1026.6 |
| 20260508150628 | 55 | 124 | 4.0 | 9.0 | 0.00 | 0.00 | 0.00 | 29 | 1026.6 |
| 20260508150129 | 55 | 221 | 4.0 | 7.0 | 0.00 | 0.00 | 0.00 | 29 | 1026.6 |
| 20260508145628 | 55 | 157 | 5.0 | 7.0 | 0.00 | 0.00 | 0.00 | 28 | 1026.6 |
| 20260508145349 | 55 | 204 | 6.0 | 7.0 | 0.00 | 0.00 | 0.00 | 28 | 1026.7 |
| 20260508144627 | 55 | 152 | 4.0 | 10.0 | 0.00 | 0.00 | 0.00 | 30 | 1026.7 |
| 20260508144126 | 55 | 99 | 6.0 | 11.0 | 0.00 | 0.00 | 0.00 | 30 | 1026.8 |
| 20260508143626 | 55 | 172 | 6.0 | 11.0 | 0.00 | 0.00 | 0.00 | 29 | 1026.9 |
| 20260508143126 | 55 | 103 | 4.0 | 12.0 | 0.00 | 0.00 | 0.00 | 29 | 1026.8 |
| 20260508142625 | 55 | 145 | 7.0 | 12.0 | 0.00 | 0.00 | 0.00 | 29 | 1026.7 |
| 20260508142126 | 55 | 124 | 6.0 | 11.0 | 0.00 | 0.00 | 0.00 | 29 | 1026.8 |
| 20260508141625 | 55 | 183 | 5.0 | 11.0 | 0.00 | 0.00 | 0.00 | 29 | 1026.7 |
| 20260508141125 | 55 | 147 | 3.0 | 9.0 | 0.00 | 0.00 | 0.00 | 29 | 1026.8 |
| 20260508140625 | 55 | 206 | 5.0 | 9.0 | 0.00 | 0.00 | 0.00 | 28 | 1026.7 |
| 20260508140124 | 55 | 148 | 5.0 | 9.0 | 0.00 | 0.00 | 0.00 | 29 | 1026.8 |
| 20260508135849 | 55 | 138 | 6.0 | 10.0 | 0.00 | 0.00 | 0.00 | 30 | 1026.7 |
| 20260508135139 | 55 | 166 | 4.0 | 10.0 | 0.00 | 0.00 | 0.00 | 29 | 1026.7 |
| 20260508134626 | 55 | 219 | 6.0 | 11.0 | 0.00 | 0.00 | 0.00 | 28 | 1026.8 |
| 20260508134125 | 56 | 180 | 6.0 | 11.0 | 0.00 | 0.00 | 0.00 | 29 | 1026.8 |
| 20260508133626 | 55 | 161 | 3.0 | 12.0 | 0.00 | 0.00 | 0.00 | 30 | 1026.8 |
| 20260508133127 | 55 | 162 | 5.0 | 12.0 | 0.00 | 0.00 | 0.00 | 29 | 1026.9 |
| 20260508132625 | 55 | 162 | 5.0 | 12.0 | 0.00 | 0.00 | 0.00 | 28 | 1026.9 |
| 20260508132344 | 55 | 151 | 6.0 | 9.0 | 0.00 | 0.00 | 0.00 | 29 | 1026.8 |
| 20260508131623 | 54 | 199 | 4.0 | 12.0 | 0.00 | 0.00 | 0.00 | 30 | 1026.9 |
| 20260508131136 | 54 | 158 | 6.0 | 12.0 | 0.00 | 0.00 | 0.00 | 28 | 1027.0 |
| 20260508130625 | 54 | 186 | 3.0 | 11.0 | 0.00 | 0.00 | 0.00 | 30 | 1026.9 |
| 20260508130124 | 54 | 196 | 7.0 | 11.0 | 0.00 | 0.00 | 0.00 | 27 | 1027.0 |
| 20260508125625 | 55 | 165 | 5.0 | 11.0 | 0.00 | 0.00 | 0.00 | 27 | 1027.0 |
| 20260508125125 | 55 | 185 | 7.0 | 11.0 | 0.00 | 0.00 | 0.00 | 28 | 1027.0 |
| 20260508124624 | 56 | 206 | 6.0 | 13.0 | 0.00 | 0.00 | 0.00 | 30 | 1027.0 |
| 20260508124350 | 55 | 120 | 10.0 | 13.0 | 0.00 | 0.00 | 0.00 | 31 | 1026.9 |
| 20260508123624 | 55 | 145 | 5.0 | 12.0 | 0.00 | 0.00 | 0.00 | 32 | 1026.9 |
| 20260508123125 | 55 | 168 | 7.0 | 12.0 | 0.00 | 0.00 | 0.00 | 31 | 1027.0 |
| 20260508122624 | 56 | 104 | 6.0 | 12.0 | 0.00 | 0.00 | 0.00 | 31 | 1026.9 |
| 20260508122124 | 55 | 141 | 7.0 | 12.0 | 0.00 | 0.00 | 0.00 | 29 | 1026.9 |
| 20260508121624 | 55 | 151 | 6.0 | 15.0 | 0.00 | 0.00 | 0.00 | 30 | 1026.9 |
| 20260508121125 | 54 | 138 | 8.0 | 15.0 | 0.00 | 0.00 | 0.00 | 31 | 1027.1 |
| 20260508120624 | 54 | 123 | 7.0 | 14.0 | 0.00 | 0.00 | 0.00 | 30 | 1026.9 |
| 20260508120124 | 55 | 92 | 9.0 | 13.0 | 0.00 | 0.00 | 0.00 | 32 | 1026.9 |
| 20260508115624 | 55 | 157 | 6.0 | 12.0 | 0.00 | 0.00 | 0.00 | 31 | 1027.0 |
| 20260508115125 | 55 | 157 | 6.0 | 12.0 | 0.00 | 0.00 | 0.00 | 32 | 1027.0 |
| 20260508114624 | 54 | 135 | 7.0 | 12.0 | 0.00 | 0.00 | 0.00 | 32 | 1027.0 |
| 20260508114124 | 55 | 195 | 7.0 | 12.0 | 0.00 | 0.00 | 0.00 | 32 | 1026.9 |
| 20260508113623 | 54 | 113 | 6.0 | 10.0 | 0.00 | 0.00 | 0.00 | 32 | 1026.9 |
| 20260508113123 | 55 | 164 | 6.0 | 13.0 | 0.00 | 0.00 | 0.00 | 32 | 1027.0 |
| 20260508112623 | 55 | 71 | 9.0 | 13.0 | 0.00 | 0.00 | 0.00 | 33 | 1026.9 |
| 20260508112124 | 55 | 133 | 9.0 | 13.0 | 0.00 | 0.00 | 0.00 | 33 | 1026.9 |
| 20260508111622 | 55 | 111 | 6.0 | 13.0 | 0.00 | 0.00 | 0.00 | 32 | 1026.9 |
| 20260508111123 | 55 | 157 | 6.0 | 14.0 | 0.00 | 0.00 | 0.00 | 34 | 1026.9 |
| 20260508110623 | 55 | 135 | 11.0 | 15.0 | 0.00 | 0.00 | 0.00 | 33 | 1026.9 |
| 20260508110122 | 54 | 113 | 11.0 | 15.0 | 0.00 | 0.00 | 0.00 | 34 | 1027.0 |
| 20260508105623 | 55 | 204 | 8.0 | 15.0 | 0.00 | 0.00 | 0.00 | 34 | 1026.9 |
| 20260508105343 | 55 | 141 | 10.0 | 13.0 | 0.00 | 0.00 | 0.00 | 34 | 1026.9 |